Weather in Slobodskoy

Russia / Oryol Oblast     52°31′46″N   36°00′45″E
temp.,
°C
wind,
m/s
gust,
m/s
humid.,
%
clouds,
%
prec.,
mm/h
press.,
hPa
HPBL,
m
8 august, mon
mon800:00+19nne61183100 0.0 1018260
03:00+19ne51176100 0.0 1019290
06:00+18e378065 0.0 1019146
09:00+23ene125814 0.0 1019441
12:00+27ese22415 0.0 10191030
15:00+29se12346 0.0 10182117
18:00+29n113912 0.0 10181465
21:00+22nne367479 0.0 1018120
9 august, tue
tue900:00+20n2481100 0.0 1019104
03:00+20nne2376100 0.1 101856
06:00+19nnw248460 0.0 1019119
09:00+21nw2375100 0.0 1019262
12:00+25nnw3360100 0.0 1019853
15:00+25nnw226197 0.0 1019946
18:00+24nnw446797 0.0 1019790
21:00+19n51091100 2.7 1019360
10 august, wed
wed1000:00+18nne4894100 0.1 1019311
03:00+17n4896100 0.1 1019370
06:00+16nne4895100 0.2 1020321
09:00+17n3694100 0.3 1020252
12:00+18nne568594 0.0 1021434
15:00+22ne456891 0.0 1020871
18:00+22ne5668100 0.0 1020916
21:00+18ne51181100 0.0 1020309
11 august, thu
thu1100:00+17ne5128997 0.0 1020355
03:00+16ne5138958 0.0 1021411
06:00+16ne51382100 0.0 1022419
09:00+20ne7116343 0.0 1022548
12:00+24ene785088 0.0 10221007
15:00+26ene77465 0.0 10221233
18:00+24ne57520 0.0 1022912
21:00+19ne410680 0.0 1023199
12 august, fri
fri1200:00+17ene49690 0.0 1023188
03:00+16ne49680 0.0 1024158
06:00+15ne476664 0.0 1025144
09:00+21ene46500 0.0 1024388
12:00+25ne55410 0.0 1024912
15:00+27ne44380 0.0 10231290
18:00+26ne46450 0.0 1022478
21:00+20ne47610 0.0 1023116